Location: ?????
(30.4569°N, 47.8921°E)
Time: 01:18:31
(UTC+00:00)

Daily predictions for brighter satellites

Satellite Brightness Start Highest point End
(mag) Time Altitude Azimuth Time Altitude Azimuth Time Altitude Azimuth
Cosmos 2151 3.6 00:03:55 35° W 00:04:15 36° W 00:08:13 10° NNW
H-2A R/B 2.6 00:00:39 10° SSE 00:04:57 61° ENE 00:09:22 10° N
Cosmos 1766 Rocket 3.6 00:04:41 43° SW 00:05:47 56° W 00:10:02 10° N
STARLINK-1035 3.6 00:05:00 44° SSW 00:06:12 72° SE 00:10:20 10° NE
Lacrosse 5 rocket 1.2 00:06:21 45° SW 00:07:32 87° NW 00:11:30 10° NE
Cosmos 1151 Rocket 3.7 00:03:32 10° N 00:07:51 54° E 00:12:06 10° SSE
Okean 3 Rocket 4.0 00:07:19 37° WSW 00:08:22 44° W 00:12:44 10° N
SL-16 R/B 4.2 00:10:23 15° W 00:10:23 15° W 00:12:58 10° WNW
GEOS 3 Rocket 3.6 00:05:08 10° SSE 00:10:10 60° WSW 00:15:20 10° NW
STARLINK-1032 3.5 00:09:46 41° SSW 00:11:09 82° SE 00:15:17 10° NE
STARLINK-1037 3.5 00:12:49 39° SW 00:14:18 89° SE 00:18:26 10° NE
Spot 4 Rocket 4.3 00:09:58 10° N 00:14:56 51° WNW 00:17:23 28° SW
STARLINK-1011 3.5 00:14:33 37° SW 00:16:08 88° NW 00:20:16 10° NE
SL-08 R/B 4.5 00:11:25 19° S 00:16:12 80° W 00:22:37 10° N
Cosmos 2237 Rocket 3.7 00:11:45 10° SSE 00:16:44 33° ESE 00:21:45 10° NE
SL-08 R/B 3.7 00:16:02 30° SW 00:17:37 40° W 00:21:57 10° NNW
Cosmos 1818 3.5 00:16:02 25° SSW 00:19:14 90° WNW 00:24:41 10° NNE
Cosmos 1825 3.9 00:20:38 18° WNW 00:20:38 18° WNW 00:23:08 10° NNW
STARLINK-1036 3.6 00:19:20 33° SW 00:21:06 79° NW 00:25:15 10° NE
STARLINK-1044 3.6 00:24:07 29° WSW 00:26:05 70° NW 00:30:12 10° NE
COSMOS 2428 2.8 00:24:46 22° SW 00:28:23 63° WNW 00:34:01 10° NNE
MSX 3.8 00:23:25 10° N 00:29:10 83° WNW 00:34:25 12° SSW
Cosmos 1346 Rocket 3.8 00:25:43 10° SSE 00:29:31 44° E 00:33:19 10° NNE
Cosmos 1844 Rocket 2.6 00:23:59 10° NNW 00:29:35 85° WSW 00:35:08 10° SSE
STARLINK-1047 3.8 00:28:54 26° WSW 00:31:03 62° NW 00:35:09 10° NE
FUSE 4.3 00:29:07 22° WSW 00:32:17 47° S 00:37:26 10° ESE
CZ-4C R/B 3.1 00:33:26 13° S 00:36:33 55° W 00:40:07 10° NNW
STARLINK-1444 2.3 00:34:26 10° NW 00:36:47 51° SW 00:39:16 10° SSE
STARLINK-1452 2.3 00:35:04 10° NW 00:37:25 49° SW 00:39:53 10° SSE
STARLINK-1392 2.4 00:35:51 10° NW 00:38:10 47° SW 00:40:36 10° SSE
STARLINK-1399 2.4 00:35:54 10° NW 00:38:12 47° SW 00:40:40 10° SSE
STARLINK-1393 2.4 00:35:56 10° NW 00:38:14 47° SW 00:40:42 10° SSE
STARLINK-1394 2.4 00:35:57 10° NW 00:38:15 47° SW 00:40:43 10° SSE
STARLINK-1395 2.4 00:36:00 10° NW 00:38:18 47° SW 00:40:46 10° SSE
STARLINK-1397 2.4 00:36:00 10° NW 00:38:20 47° SW 00:40:46 10° SSE
STARLINK-1414 2.4 00:36:01 10° NW 00:38:20 47° SW 00:40:47 10° SSE
STARLINK-1396 2.4 00:36:01 10° NW 00:38:20 47° SW 00:40:47 10° SSE
STARLINK-1408 2.4 00:36:04 10° NW 00:38:22 47° SW 00:40:50 10° SSE
Cosmos 1743 Rocket 3.5 00:34:03 10° S 00:38:25 89° ENE 00:42:48 10° N
STARLINK-1404 2.4 00:36:06 10° NW 00:38:26 47° SW 00:40:52 10° SSE
STARLINK-1416 2.4 00:36:07 10° NW 00:38:26 47° SW 00:40:53 10° SSE
STARLINK-1415 2.4 00:36:08 10° NW 00:38:27 47° SW 00:40:54 10° SSE
STARLINK-1406 2.4 00:36:10 10° NW 00:38:28 47° SW 00:40:55 10° SSE
STARLINK-1450 2.4 00:36:10 10° NW 00:38:30 47° SW 00:40:57 10° SSE
STARLINK-1401 2.4 00:36:12 10° NW 00:38:31 47° SW 00:40:58 10° SSE
STARLINK-1417 2.4 00:36:15 10° NW 00:38:34 47° SW 00:41:01 10° SSE
STARLINK-1402 2.4 00:36:16 10° NW 00:38:35 47° SW 00:41:02 10° SSE
STARLINK-1413 2.4 00:36:16 10° NW 00:38:35 47° SW 00:41:02 10° SSE
STARLINK-1419 2.4 00:36:17 10° NW 00:38:36 47° SW 00:41:04 10° SSE
STARLINK-1422 2.4 00:36:22 10° NW 00:38:41 47° SW 00:41:08 10° SSE
STARLINK-1453 2.4 00:36:24 10° NW 00:38:43 47° SW 00:41:11 10° SSE
STARLINK-1398 2.4 00:36:26 10° NW 00:38:45 47° SW 00:41:13 10° SSE
STARLINK-1420 2.4 00:36:27 10° NW 00:38:46 46° SW 00:41:13 10° SSE
STARLINK-1440 2.4 00:36:29 10° NW 00:38:48 46° SW 00:41:16 10° SSE
STARLINK-1460 2.4 00:36:30 10° NW 00:38:49 46° SW 00:41:16 10° SSE
STARLINK-1436 (VISORSAT) 2.4 00:36:30 10° NW 00:38:50 46° SW 00:41:18 10° SSE
STARLINK-1410 2.4 00:36:34 10° NW 00:38:52 46° SW 00:41:20 10° SSE
STARLINK-1423 2.4 00:36:34 10° NW 00:38:53 46° SW 00:41:20 10° SSE
STARLINK-1421 2.4 00:36:35 10° NW 00:38:53 46° SW 00:41:21 10° SSE
STARLINK-1400 2.4 00:36:35 10° NW 00:38:54 46° SW 00:41:21 10° SSE
STARLINK-1454 2.4 00:36:36 10° NW 00:38:55 46° SW 00:41:23 10° SSE
STARLINK-1458 2.4 00:36:38 10° NW 00:38:57 46° SW 00:41:25 10° SSE
STARLINK-1445 2.4 00:36:41 10° NW 00:39:01 46° SW 00:41:28 10° SSE
STARLINK-1405 2.4 00:36:43 10° NW 00:39:02 46° SW 00:41:29 10° SSE
STARLINK-1407 2.4 00:36:43 10° NW 00:39:02 46° SW 00:41:29 10° SSE
STARLINK-1446 2.4 00:36:43 10° NW 00:39:03 46° SW 00:41:30 10° SSE
STARLINK-1370 2.4 00:36:45 10° NW 00:39:05 46° SW 00:41:32 10° SSE
STARLINK-1439 2.4 00:36:47 10° NW 00:39:05 46° SW 00:41:33 10° SSE
STARLINK-1451 2.4 00:36:47 10° NW 00:39:06 46° SW 00:41:34 10° SSE
STARLINK-1456 2.4 00:36:47 10° NW 00:39:06 46° SW 00:41:33 10° SSE
STARLINK-1409 2.4 00:36:48 10° NW 00:39:06 46° SW 00:41:34 10° SSE
STARLINK-1457 2.4 00:36:47 10° NW 00:39:07 46° SW 00:41:34 10° SSE
STARLINK-1455 2.4 00:36:49 10° NW 00:39:08 46° SW 00:41:35 10° SSE
STARLINK-1447 2.4 00:36:49 10° NW 00:39:08 46° SW 00:41:35 10° SSE
STARLINK-1437 2.4 00:36:50 10° NW 00:39:09 46° SW 00:41:36 10° SSE
STARLINK-1441 2.4 00:36:51 10° NW 00:39:10 46° SW 00:41:38 10° SSE
STARLINK-1443 2.4 00:36:54 10° NW 00:39:14 46° SW 00:41:41 10° SSE
STARLINK-1351 2.4 00:36:55 10° NW 00:39:15 46° SW 00:41:42 10° SSE
STARLINK-1418 2.4 00:36:55 10° NW 00:39:15 46° SW 00:41:42 10° SSE
STARLINK-1403 2.4 00:36:56 10° NW 00:39:16 46° SW 00:41:43 10° SSE
STARLINK-1434 2.4 00:36:56 10° NW 00:39:16 46° SW 00:41:43 10° SSE
STARLINK-1442 2.4 00:36:57 10° NW 00:39:16 46° SW 00:41:44 10° SSE
STARLINK-1448 2.4 00:36:59 10° NW 00:39:18 45° SW 00:41:46 10° SSE
STARLINK-1433 2.4 00:36:59 10° NW 00:39:19 45° SW 00:41:46 10° SSE
STARLINK-1449 2.4 00:37:02 10° NW 00:39:21 45° SW 00:41:49 10° SSE
STARLINK-1438 2.4 00:37:04 10° NW 00:39:23 45° SW 00:41:50 10° SSE
STARLINK-1411 2.4 00:37:12 10° NW 00:39:31 45° SW 00:41:58 10° SSE
STARLINK-1412 2.4 00:37:12 10° NW 00:39:31 45° SW 00:41:59 10° SSE
STARLINK-1059 4.1 00:38:28 20° WSW 00:41:02 48° NW 00:45:02 10° NNE
Cosmos 1340 2.6 00:39:31 16° SSW 00:42:26 65° W 00:46:11 10° N
STARLINK-1057 4.3 00:43:16 18° WSW 00:46:02 43° NW 00:49:59 10° NNE
Cosmos 2360 Rocket 4.2 00:44:55 10° WNW 00:46:54 12° WNW 00:48:52 10° NW
STARLINK-60 3.8 00:46:43 10° WNW 00:49:28 27° SW 00:52:13 10° S
STARLINK-1034 4.5 00:48:03 16° WSW 00:51:01 39° NW 00:54:55 10° NNE
Cosmos 1934 Rocket 4.2 00:47:59 10° S 00:54:00 73° E 01:00:02 10° N
Cosmos 2112 Rocket 4.0 00:49:04 10° SSW 00:54:17 73° WNW 00:59:35 10° NNE
Cosmos 1821 Rocket 4.1 00:49:34 10° SSW 00:55:51 61° W 01:02:05 10° N
CZ-2C R/B 2.5 00:52:31 10° N 00:57:44 87° WNW 01:02:50 10° SSW
NOSS 0 Rocket 3.9 00:52:43 10° SSW 00:58:50 73° WNW 01:05:00 10° NNE
Cosmos 1933 4.0 00:55:58 10° NNW 00:59:35 34° W 01:03:12 10° SSW
Cosmos 2333 Rocket 3.4 00:55:34 13° WSW 00:59:40 27° WNW 01:04:25 10° N
USA 234 3.8 00:54:00 10° NE 01:00:23 55° SE 01:06:44 10° SSW
Centaur D-1AR AC-40 3.1 00:57:58 13° SW 01:00:41 31° SSE 01:07:41 10° ESE
Cosmos 1328 Rocket 4.4 00:58:06 10° NNW 01:01:56 31° W 01:05:44 10° SSW
Cosmos 2219 Rocket 3.4 00:59:50 11° WSW 01:04:04 26° WNW 01:08:41 10° N
Landsat 5 4.4 01:01:51 10° SSW 01:05:51 31° W 01:09:50 10° NW
ALOS 4.1 01:02:42 10° NE 01:06:52 32° E 01:11:00 10° SSE
PSLV R/B 4.0 01:03:33 10° N 01:07:29 40° WNW 01:11:24 10° SW
STARLINK-1058 4.4 01:03:39 10° SSW 01:07:36 46° SE 01:11:34 10° NE
Cosmos 2344 3.9 01:00:15 10° SW 01:07:37 51° WNW 01:15:02 10° NNE
USA 32 4.3 01:02:48 10° SSW 01:07:50 49° W 01:12:54 10° N
STARLINK-1043 4.2 01:08:33 10° SSW 01:12:34 52° SE 01:16:36 10° NE
ATLAS 5 CENTAUR R/B 2.5 01:11:46 10° WSW 01:15:18 29° NW 01:19:06 10° N
Cosmos 1689 Rocket 3.6 01:12:55 10° SSE 01:15:40 40° ENE 01:18:28 10° N
IDEFIX/ARIANE 42P 4.2 01:12:47 10° NNW 01:16:11 18° WNW 01:19:34 10° WSW
Cosmos 2228 Rocket 3.1 01:14:27 10° N 01:18:58 74° W 01:23:30 10° S
Meteor 1-31 Rocket 3.2 01:15:52 10° NNE 01:19:40 64° E 01:23:28 10° S
NOSS 7 (D) 4.0 01:16:39 10° SW 01:19:45 71° WNW 01:22:36 10° NNE
Cosmos 1605 Rocket 4.3 01:15:36 10° S 01:21:53 79° E 01:28:17 10° N
CZ-3 R/B 3.4 00:51:39 10° WSW 01:25:19 79° S 01:32:58 10° E
